Location: A�t �Alizem
(31.2076°N, 8.7872°W)
Time: 15:37:01
(UTC+00:00)

Helios 1A Rocket - Pass Details

Date: 27 November 2020
Orbit: 564 x 585 km, 98.3° (Epoch: 26 January)

Event Time Altitude Azimuth Distance (km) Brightness Sun altitude
Rises 18:46:40 0° 146° (SE) 2,750 6.2 -15.7°
Reaches altitude 10° 18:48:57 10° 136° (SE) 1,855 5.2 -16.2°
Enters shadow 18:50:24 19° 123° (ESE) 1,354 4.4 -16.5°
Exits shadow 18:56:13 10° 9° (N) 1,888 5.3 -17.7°
Sets 18:58:25 0° 360° (N) 2,760 6.3 -18.1°
